Weather History for Orlando International, FL

Change the Weather History Date:

Tuesday, September 6, 2011

  Actual Average Record
Temperature  
Mean Temperature 82 °F 82 °F  
Max Temperature 88 °F 91 °F 100 °F (1921)
Min Temperature 75 °F 74 °F 62 °F (1893)
Degree Days  
Heating Degree Days 0 0  
Month to date heating degree days 0 0  
Since 1 July heating degree days 0 0  
Cooling Degree Days 17 17  
Month to date cooling degree days 99 102  
Year to date cooling degree days 2834 2495  
Growing Degree Days 30 (Base 50)    
Moisture  
Dew Point 74 °F    
Average Humidity 83    
Maximum Humidity 97    
Minimum Humidity 69    
Precipitation  
Precipitation 0.04 in 0.21 in 3.61 in (1933)
Month to date precipitation 0.30 1.28  
Year to date precipitation 41.53 37.89  
Sea Level Pressure  
Sea Level Pressure 29.88 in    
Wind  
Wind Speed 11 mph (SSW)    
Max Wind Speed 25 mph    
Max Gust Speed 33 mph    
Visibility 10 miles    
Events Rain    
T = Trace of Precipitation, MM = Missing Value Source: NWS Daily Summary

Daily Weather History Graph

Daily Weather History Graph

Search for Another Location

Airport:

Trip Planner

Search our weather history database for the weather conditions in past years. The results will help you decide how hot, cold, wet, or windy it might be!

Date:

Astronomy

Sep. 06, 2011 Rise Set
Actual Time 7:05 AM EDT 7:41 PM EDT
Civil Twilight 6:41 AM EDT 8:04 PM EDT
Nautical Twilight 6:14 AM EDT 8:32 PM EDT
Astronomical Twilight 5:45 AM EDT 9:01 PM EDT
Moon 3:54 PM EDT (9/6) 1:41 AM EDT (9/6)
Length of Visible Light 13h 22m
Length of Day
12h 35m
Waxing Gibbous, 70% of the Moon is Illuminated
Sep 6
Waxing Gibbous
Sep 12
Full
Sep 20
Last Quarter
Sep 27
New
Oct 3
First Quarter

Hourly Weather History & Observations

Time (EDT) Temp. Heat Index Dew Point Humidity Pressure Visibility Wind Dir Wind Speed Gust Speed Precip Events Conditions
12:53 AM 79.0 °F - 75.9 °F 90% 29.84 in 10.0 mi South 10.4 mph - N/A   Partly Cloudy
1:53 AM 80.1 °F 85.1 °F 75.0 °F 85% 29.84 in 10.0 mi South 8.1 mph - N/A   Partly Cloudy
2:53 AM 79.0 °F - 75.9 °F 90% 29.81 in 10.0 mi South 11.5 mph - N/A   Partly Cloudy
3:53 AM 79.0 °F - 75.9 °F 90% 29.81 in 10.0 mi South 9.2 mph - N/A   Partly Cloudy
4:53 AM 79.0 °F - 77.0 °F 94% 29.80 in 10.0 mi South 10.4 mph - N/A   Partly Cloudy
5:53 AM 78.1 °F - 75.9 °F 93% 29.81 in 10.0 mi South 8.1 mph - N/A   Partly Cloudy
6:53 AM 78.1 °F - 75.9 °F 93% 29.83 in 10.0 mi South 9.2 mph - N/A   Partly Cloudy
7:53 AM 79.0 °F - 77.0 °F 94% 29.86 in 10.0 mi SSE 10.4 mph - N/A   Scattered Clouds
8:53 AM 81.0 °F 87.9 °F 77.0 °F 88% 29.87 in 10.0 mi South 13.8 mph - N/A   Scattered Clouds
9:53 AM 84.9 °F 96.6 °F 78.1 °F 80% 29.87 in 10.0 mi SSW 17.3 mph 21.9 mph N/A   Scattered Clouds
10:43 AM 84.0 °F 91.9 °F 75.0 °F 74% 29.90 in 10.0 mi West 15.0 mph 24.2 mph N/A   Mostly Cloudy
10:53 AM 80.1 °F 83.6 °F 71.1 °F 74% 29.91 in 10.0 mi WSW 18.4 mph 27.6 mph N/A   Mostly Cloudy
11:03 AM 78.8 °F - 71.6 °F 78% 29.93 in 10.0 mi WSW 18.4 mph 33.4 mph N/A Rain Light Rain
11:23 AM 77.0 °F - 73.9 °F 90% 29.92 in 8.0 mi WSW 17.3 mph - 0.04 in Rain Light Rain
11:53 AM 82.0 °F 87.4 °F 73.0 °F 74% 29.91 in 10.0 mi SW 19.6 mph 29.9 mph 0.04 in   Scattered Clouds
12:53 PM 82.0 °F 86.7 °F 72.0 °F 71% 29.88 in 10.0 mi SW 16.1 mph 21.9 mph 0.00 in   Mostly Cloudy
1:53 PM 86.0 °F 95.1 °F 75.0 °F 70% 29.86 in 10.0 mi SSW 13.8 mph 20.7 mph 0.00 in   Mostly Cloudy
2:53 PM 86.0 °F 96.0 °F 75.9 °F 72% 29.86 in 10.0 mi SSW 15.0 mph 20.7 mph N/A   Mostly Cloudy
3:53 PM 84.9 °F 92.1 °F 73.9 °F 69% 29.87 in 10.0 mi SSW 12.7 mph - N/A   Mostly Cloudy
4:53 PM 84.9 °F 92.1 °F 73.9 °F 69% 29.85 in 10.0 mi South 13.8 mph - N/A   Mostly Cloudy
5:53 PM 81.0 °F 86.2 °F 73.9 °F 79% 29.86 in 10.0 mi South 12.7 mph - 0.00 in Rain Light Rain
6:53 PM 79.0 °F - 75.0 °F 88% 29.87 in 10.0 mi South 9.2 mph - 0.00 in Rain Light Rain
7:53 PM 77.0 °F - 73.0 °F 88% 29.88 in 10.0 mi South 8.1 mph - 0.00 in   Overcast
8:53 PM 77.0 °F - 73.0 °F 88% 29.89 in 10.0 mi South 4.6 mph - N/A   Mostly Cloudy
9:53 PM 75.9 °F - 73.9 °F 94% 29.91 in 10.0 mi South 3.5 mph - N/A   Overcast
10:22 PM 75.9 °F - 73.9 °F 94% 29.93 in 10.0 mi South 4.6 mph - N/A   Mostly Cloudy
10:53 PM 77.0 °F - 72.0 °F 84% 29.94 in 10.0 mi SSW 9.2 mph - N/A   Mostly Cloudy
11:07 PM 75.9 °F - 72.0 °F 87% 29.94 in 10.0 mi SSE 4.6 mph - N/A   Mostly Cloudy
11:53 PM 75.9 °F - 72.0 °F 87% 29.94 in 10.0 mi SSW 4.6 mph - N/A   Mostly Cloudy